Hourly Data Report for October 15, 2013

All times are specified in Local Standard Time (LST). Add 1 hour to adjust for Daylight Saving Time where and when it is observed.

GRISE FIORD CLIMATE
NUNAVUT

76°25'22.040" N
82°54'08.020" W
44.50 m
2402351
71971
NGC

Download Data

Hourly Data (October 2013)
Hourly Data Report for October 15, 2013
Temp Definition
°C
Dew Point Temp Definition
°C
Rel Hum Definition
%
Wind Dir Definition
10's deg

Wind Spd Definition
km/h
Visibility Definition
km
Stn Press Definition
kPa
Hmdx Definition


Wind Chill Definition


Weather Definition


TIME
00:00 -10.5 -14.0 75 12 4   101.44   -13 LegendNANA
01:00 -10.9 -14.8 73 35 4   101.45   -13 LegendNANA
02:00 -11.3 -14.6 77 4 2   101.45   -13 LegendNANA
03:00 -9.9 -12.6 81 6 4   101.41   -12 LegendNANA
04:00 -10.0 -12.3 83 36 6   101.41   -14 LegendNANA
05:00 -10.2 -13.1 79 10 2   101.38   -11 LegendNANA
06:00 -11.0 -13.5 82 2 6   101.41   -15 LegendNANA
07:00 -8.4 -12.4 73 35 2   101.38   -9 LegendNANA
08:00 -9.4 -13.1 74 15 4   101.36   -12 LegendNANA
09:00 -9.4 -13.5 72 20 2   101.33   -11 LegendNANA
10:00 -8.8 -12.8 73 4 4   101.25   -11 LegendNANA
11:00 -7.4 -12.2 68 3 9   101.22   -12 LegendNANA
12:00 -7.5 -12.4 68 6 4   101.20   -10 LegendNANA
13:00 -7.6 -11.8 72 3 4   101.18   -10 LegendNANA
14:00 -6.9 -11.6 69 4 4   101.18   -9 LegendNANA
15:00 -7.4 -10.5 78 32 2   101.20   -8 LegendNANA
16:00 -7.4 -9.5 85 2 6   101.19   -11 LegendNANA
17:00 -8.0 -9.1 92 34 2   101.15   -9 LegendNANA
18:00 -6.7 -7.1 97 36 4   101.10   -9 LegendNANA
19:00 -6.3 -7.8 89 35 4   101.09   -8 LegendNANA
20:00 -6.7 -7.6 93 6 2   101.04   -8 LegendNANA
21:00 -6.2 -6.8 96 9 4   101.03   -8 LegendNANA
22:00 -5.6 -6.2 96 15 4   100.98   -7 LegendNANA
23:00 -6.3 -6.9 95 33 7   100.94   -10 LegendNANA

Notes on Data Quality.

Legend

  • E = Estimated
  • M = Missing
  • NA = Not Available
  • ‡ = Partner data that is not subject to review by the National Climate Archives
Date modified: